Weather in Kokadoy

Russia / Chechen Republic     42°44′59″N   45°35′08″E
temp.,
°C
wind,
m/s
gust,
m/s
humid.,
%
clouds,
%
prec.,
mm/h
press.,
hPa
HPBL,
m
19 september, sun
sun1900:00+8ssw33856 0.0 101741
03:00+7ssw338573 0.0 101753
06:00+7ssw33845 0.0 101751
09:00+16nne1148100 0.0 1014935
12:00+19nne3344100 0.0 10121326
15:00+16nne3264100 0.1 1014668
18:00+11ssw118755 0.1 101513
21:00+10sw337511 0.1 101543
20 september, mon
mon2000:00+10ssw33743 0.0 101549
03:00+9ssw33710 0.0 101649
06:00+9ssw32700 0.0 101634
09:00+16nne21495 0.0 1014693
12:00+17nne435128 0.0 10141208
15:00+15nne3267100 1.2 1015829
18:00+10ne119242 1.8 101613
21:00+9ssw229119 2.4 101816
21 september, tue
tue2100:00+8ssw218913 0.0 101914
03:00+7ssw22861 0.0 101918
06:00+7ssw32800 0.0 101925
09:00+15ne11575 0.0 1016538
12:00+19nne333959 0.0 10131501
15:00+19nne2247100 0.0 10111006
18:00+12ssw2268100 0.0 101337
21:00+12ssw44556 0.0 101477
22 september, wed
wed2200:00+10ssw3363100 0.0 101437
03:00+9s2166100 0.0 101514
06:00+7sse018099 0.0 101611
09:00+11nne328397 0.0 1015461
12:00+10nne3295100 0.3 1014356
15:00+9nne2297100 0.9 1014336
18:00+9ne2299100 0.7 1015213
21:00+8w1298100 2.1 1014115
23 september, thu
thu2300:00+7nne1196100 5.6 1014102
03:00+7ene119990 5.6 101373
06:00+7nne119757 0.0 101280
09:00+9nne219592 0.1 1011259
12:00+12nne218148 0.3 1009377
15:00+16ne136234 0.4 1006621
18:00+11sw228570 0.1 100766
21:00+9wsw128547 0.1 100674